Muncie, IN

4:43 AM EDT on April 28, 2017 (GMT -0400)
Delaware County-Johnson

Weather History for KMIE - June, 2012

Change the Weather History Date:

Saturday, June 9, 2012

  Actual Average Record
Temperature  
Mean Temperature 74 °F 70 °F  
Max Temperature 86 °F 80 °F 94 °F (1968)
Min Temperature 62 °F 60 °F 45 °F (1988)
Degree Days  
Heating Degree Days 0 1  
Month to date heating degree days 25 14  
Since 1 June heating degree days 25 14  
Since 1 July heating degree days 4686 5773  
Cooling Degree Days 9 6  
Month to date cooling degree days 19 46  
Year to date cooling degree days 197 129  
Since 1 June cooling degree days 19 46  
Growing Degree Days 24 (Base 50)    
Moisture  
Dew Point 47 °F    
Average Humidity 42    
Maximum Humidity 60    
Minimum Humidity 23    
Precipitation  
Precipitation 0.00 in 0.16 in 1.30 in (1990)
Month to date precipitation 0.02 1.48  
Year to date precipitation 12.26 17.05  
Sea Level Pressure  
Sea Level Pressure 29.97 in    
Wind  
Wind Speed 6 mph (SW)    
Max Wind Speed 14 mph    
Max Gust Speed 20 mph    
Visibility 10 miles    
Events      
T = Trace of Precipitation, MM = Missing Value Source: NWS Daily Summary

Daily Weather History Graph

Daily Weather History Graph

Search for Another Location

Airport or City:

Trip Planner

Search our weather history database for the weather conditions in past years. The results will help you decide how hot, cold, wet, or windy it might be!

Date:

Astronomy

Jun. 09, 2012 Rise Set
Actual Time 6:11 AM EDT 9:10 PM EDT
Civil Twilight 5:38 AM EDT 9:43 PM EDT
Nautical Twilight 4:57 AM EDT 10:24 PM EDT
Astronomical Twilight 4:08 AM EDT 11:13 PM EDT
Moon 12:33 AM EDT (6/9) 11:56 AM EDT (6/9)
Length of Visible Light 16h 04m
Length of Day
14h 58m
Waning Gibbous, 68% of the Moon is Illuminated
Jun 9
Waning Gibbous
Jun 11
Last Quarter
Jun 19
New
Jun 26
First Quarter
Jul 3
Full

Hourly Weather History & Observations

Time (EDT) Temp. Dew Point Humidity Pressure Visibility Wind Dir Wind Speed Gust Speed Precip Events Conditions
12:53 AM 66.9 °F 46.9 °F 49% 29.99 in 10.0 mi SSW 4.6 mph - N/A   Clear
1:53 AM 66.0 °F 46.9 °F 50% 29.98 in 10.0 mi SSW 4.6 mph - N/A   Clear
2:53 AM 66.0 °F 46.9 °F 50% 29.97 in 10.0 mi SW 5.8 mph - N/A   Clear
4:53 AM 62.1 °F 48.0 °F 60% 29.97 in 10.0 mi SSW 4.6 mph - N/A   Clear
5:53 AM 64.0 °F 48.0 °F 56% 29.98 in 10.0 mi SW 5.8 mph - N/A   Clear
6:53 AM 64.0 °F 48.0 °F 56% 29.99 in 10.0 mi SW 6.9 mph - N/A   Clear
7:53 AM 68.0 °F 50.0 °F 52% 30.00 in 10.0 mi SW 5.8 mph - N/A   Clear
8:53 AM 73.0 °F 51.1 °F 46% 30.01 in 10.0 mi WSW 9.2 mph - N/A   Clear
9:53 AM 77.0 °F 51.1 °F 40% 30.02 in 10.0 mi WSW 10.4 mph - N/A   Clear
10:53 AM 80.1 °F 48.9 °F 34% 30.02 in 10.0 mi SW 9.2 mph 16.1 mph N/A   Clear
11:53 AM 82.0 °F 46.0 °F 28% 30.01 in 10.0 mi West 9.2 mph 16.1 mph N/A   Clear
12:53 PM 82.9 °F 46.0 °F 27% 29.99 in 10.0 mi SSW 8.1 mph - N/A   Clear
1:53 PM 82.9 °F 46.0 °F 27% 29.97 in 10.0 mi SW 5.8 mph - N/A   Clear
2:53 PM 84.0 °F 46.9 °F 27% 29.95 in 10.0 mi WSW 8.1 mph - N/A   Clear
3:53 PM 84.0 °F 46.0 °F 26% 29.94 in 10.0 mi WSW 8.1 mph - N/A   Clear
4:53 PM 86.0 °F 45.0 °F 24% 29.94 in 10.0 mi South 10.4 mph - N/A   Clear
5:53 PM 84.9 °F 46.0 °F 26% 29.93 in 10.0 mi SSW 4.6 mph - N/A   Clear
6:53 PM 84.0 °F 44.1 °F 25% 29.92 in 10.0 mi SSW 6.9 mph - N/A   Clear
7:53 PM 82.9 °F 45.0 °F 26% 29.92 in 10.0 mi SW 6.9 mph - N/A   Clear
8:53 PM 80.1 °F 45.0 °F 29% 29.92 in 10.0 mi SW 3.5 mph - N/A   Clear
9:53 PM 75.9 °F 46.0 °F 35% 29.93 in 10.0 mi Calm Calm - N/A   Clear
10:53 PM 73.9 °F 50.0 °F 43% 29.95 in 10.0 mi South 4.6 mph - N/A   Clear
11:53 PM 72.0 °F 50.0 °F 46% 29.96 in 10.0 mi South 5.8 mph - N/A   Clear